Back to catalog

DELTA 1 DEB

AliveLEO
NORAD 29181·DEBRIS·🇺🇸 United States

Launched Jan 11, 1968 from Vandenberg Space Force Base

Loading…

Next Passes (next 24 hours)

TLE

StaleSource: Space-Track

Epoch: Aug 27, 2026, 07:46 UTC

1 29181U 68002E   26239.32367563  .00000262  00000-0  10219-2 0  9999
2 29181 105.8122  52.9858 0303228  81.1956 282.3327 12.92014770312980

Track DELTA 1 DEB in real time with AllMySat

Download on the App Store